Regional Weather Roundup
Issued by NWS

Home | Current Version | Previous Version | Graphics & Text | Print | Product List | Glossary On
Versions: 1 2 3 4 5 6 7 8 9 10 11 12 13 14 15 16 17 18 19 20 21 22 23 24 25 26 27 28
000
ASUS45 KSLC 202310
RWRUT

UTAH REGIONAL WEATHER ROUNDUP
NATIONAL WEATHER SERVICE SALT LAKE CITY UT
500 PM MDT FRI APR 20 2018

UTZ001>011-023>025-210000-

NORTHERN UTAH

CITY           SKY/WX    TMP DP  RH WIND       PRES   REMARKS
BRIGHAM CITY   MOSUNNY   65  29  26 SW5       29.99S
HILL AFB       PTSUNNY   59  36  42 SW12      30.00S
LOGAN          MOSUNNY   67  33  28 VRB3      29.97S
OGDEN          MOSUNNY   61  35  37 SW10      29.99S
SALT LAKE CITY PTSUNNY   63  34  33 W14       30.01R
TOOELE VALLEY  CLOUDY    61  36  39 NE3       30.03R
WENDOVER       SUNNY     69  21  16 NE13G18   30.03R
HEBER CITY     CLOUDY    54  28  37 N7        29.98S
WEST JORDAN    PTSUNNY   60  38  43 NW14      30.02R

$$

UTZ011>015-024>027-210000-

CENTRAL/NORTHEAST UTAH

CITY           SKY/WX    TMP DP  RH WIND       PRES   REMARKS
PROVO AIRPORT  PTSUNNY   56  38  50 S6        30.03R
MOAB/CANYONLAN PTSUNNY   60  18  19 W17G25    29.93R
DELTA          PTSUNNY   52  41  66 S12       30.06S
PRICE          CLOUDY    43  37  79 N8        30.05R
RICHFIELD      CLOUDY    54  30  40 S5G13     30.06R
ROOSEVELT      CLOUDY    43  37  81 SW9       30.05S
VERNAL         LGT RAIN  41  37  86 SW12      30.02R

$$

UTZ013>016-019>022-027-210000-

SOUTHERN UTAH

CITY           SKY/WX    TMP DP  RH WIND       PRES   REMARKS
BRYCE CANYON   PTSUNNY   41  30  65 NW18G25   30.07R
CEDAR CITY     SUNNY     49  38  65 VRB7      30.10S
MILFORD        MOSUNNY   53  39  59 CALM      30.07F
ST GEORGE      MOCLDY    64  35  34 VRB3      30.04R
HANKSVILLE     MOSUNNY   55  25  30 CALM      30.01R
KANAB          MOSUNNY   57  27  30 NW12      30.07R
BLANDING         N/A     43  32  65 N24G31    30.06R

$$

REGIONAL REPORTS     COLORADO/ARIZONA

CITY           SKY/WX    TMP DP  RH WIND       PRES   REMARKS
CRAIG, CO      LGT RAIN  39  36  89 S12       29.94R WCI  32
GRAND JUNCTION CLOUDY    49  29  46 SW9       29.98S
RIFLE, CO      LGT RAIN  37  34  89 S6        30.02S WCI  32
MONTROSE, CO   PTSUNNY   50  23  34 NW16G23   30.00R
CORTEZ, CO     CLOUDY    47  22  37 W3        29.99R
COLORADO CITY    N/A     57  34  41 NW17G24   30.09R
PAGE, AZ       SUNNY     52  38  58 SW9       30.01
GRAND CANYON   LGT SNOW  34  33  96 N8        30.11R VSB 1   WCI  27
KINGMAN, AZ    SUNNY     73  26  17 NW22G33   30.02S
FLAGSTAFF, AZ  CLOUDY    37  34  89 W8G18     30.09R FOG     WCI  31

$$

REGIONAL REPORTS    NEVADA/IDAHO/WYOMING

CITY           SKY/WX    TMP DP  RH WIND       PRES   REMARKS
LAS VEGAS, NV  MOSUNNY   82  25  12 N16G33    29.94F
ELY, NY        SUNNY     61  16  17 N10G28    30.09R
ELKO, NV       SUNNY     63  18  17 W13G20    30.12F
POCATELLO, ID  MOSUNNY   67  29  24 W20       30.01R
BURLEY, ID     SUNNY     63  27  25 W18G30    30.05S
FORT BRIDGER,  CLOUDY    51  33  50 SW12      30.03F
EVANSTON, WY   CLOUDY    51  32  48 SW10      30.02S
ROCK SPRINGS,  CLOUDY    47  27  45 NE16G25   30.00R
KEMMERER, WY   PTSUNNY   55  27  33 NW13G24   29.99S

$$




USA.gov is the U.S. government's official web portal to all federal, state and local government web resources and services.